| time (UTC) | temp C | wind direction | speed KPH | gust KPH | rain 1hr cm | rain 24hr cm | rain mn cm | humidity % | barometer mb |
| 20260901200033 | 32 | 327 | 1.6 | 9.7 | 0.00 | 0.30 | 0.00 | 41 | 1009.3 |
| 20260901194522 | 33 | 316 | 1.6 | 9.7 | 0.00 | 0.46 | 0.00 | 38 | 1009.4 |
| 20260901193019 | 32 | 110 | 1.6 | 8.0 | 0.00 | 0.46 | 0.00 | 40 | 1009.7 |
| 20260901191523 | 31 | 325 | 3.2 | 8.0 | 0.00 | 0.46 | 0.00 | 43 | 1009.8 |
| 20260901190022 | 31 | 317 | 4.8 | 9.7 | 0.00 | 0.46 | 0.00 | 43 | 1010.1 |
| 20260901184514 | 30 | 307 | 3.2 | 11.3 | 0.00 | 0.58 | 0.00 | 45 | 1010.1 |
| 20260901183011 | 30 | 314 | 3.2 | 9.7 | 0.00 | 0.58 | 0.00 | 46 | 1010.4 |
| 20260901181516 | 30 | 318 | 3.2 | 9.7 | 0.00 | 0.58 | 0.00 | 46 | 1010.5 |
| 20260901180008 | 30 | 255 | 0.0 | 3.2 | 0.00 | 0.58 | 0.00 | 44 | 1010.5 |
| 20260901174507 | 30 | 309 | 1.6 | 4.8 | 0.00 | 0.58 | 0.00 | 45 | 1010.6 |
| 20260901173005 | 29 | 311 | 0.0 | 3.2 | 0.00 | 0.58 | 0.00 | 47 | 1010.8 |
| 20260901171505 | 29 | 300 | 1.6 | 4.8 | 0.00 | 0.58 | 0.00 | 47 | 1010.8 |
| 20260901170001 | 28 | 249 | 0.0 | 1.6 | 0.00 | 0.58 | 0.00 | 50 | 1010.7 |
| 20260901164617 | 27 | 265 | 0.0 | 3.2 | 0.00 | 0.58 | 0.00 | 54 | 1010.7 |
| 20260901163057 | 27 | 271 | 0.0 | 3.2 | 0.00 | 0.58 | 0.00 | 55 | 1010.7 |
| 20260901161555 | 27 | 91 | 0.0 | 0.0 | 0.00 | 0.58 | 0.00 | 60 | 1010.6 |
| 20260901160108 | 26 | 254 | 0.0 | 0.0 | 0.00 | 0.58 | 0.00 | 60 | 1010.6 |
| 20260901154552 | 26 | 136 | 0.0 | 3.2 | 0.00 | 0.58 | 0.00 | 63 | 1010.7 |
| 20260901153100 | 25 | 127 | 0.0 | 0.0 | 0.00 | 0.58 | 0.00 | 64 | 1010.8 |
| 20260901151545 | 24 | 297 | 0.0 | 1.6 | 0.00 | 0.58 | 0.00 | 69 | 1010.9 |
| 20260901150050 | 24 | 321 | 0.0 | 0.0 | 0.00 | 0.58 | 0.00 | 70 | 1010.9 |
| 20260901144543 | 23 | 321 | 0.0 | 0.0 | 0.00 | 0.58 | 0.00 | 74 | 1010.9 |
| 20260901143035 | 22 | 321 | 0.0 | 0.0 | 0.00 | 0.58 | 0.00 | 77 | 1010.8 |
| 20260901141531 | 22 | 321 | 0.0 | 0.0 | 0.00 | 0.58 | 0.00 | 84 | 1010.7 |
| 20260901140044 | 21 | 321 | 0.0 | 0.0 | 0.00 | 0.58 | 0.00 | 87 | 1010.6 |
| 20260901134527 | 20 | 321 | 0.0 | 0.0 | 0.00 | 0.58 | 0.00 | 90 | 1010.4 |
| 20260901133027 | 19 | 321 | 0.0 | 0.0 | 0.00 | 0.58 | 0.00 | 91 | 1010.5 |
| 20260901131534 | 19 | 321 | 0.0 | 0.0 | 0.00 | 0.58 | 0.00 | 90 | 1010.1 |
| 20260901130022 | 19 | 321 | 0.0 | 0.0 | 0.00 | 0.58 | 0.00 | 89 | 1009.8 |
| 20260901124521 | 19 | 321 | 0.0 | 0.0 | 0.00 | 0.64 | 0.00 | 88 | 1009.7 |
| 20260901123018 | 19 | 321 | 0.0 | 0.0 | 0.00 | 0.64 | 0.00 | 89 | 1009.4 |
| 20260901121518 | 19 | 321 | 0.0 | 0.0 | 0.00 | 0.64 | 0.00 | 88 | 1009.2 |
| 20260901120019 | 20 | 321 | 0.0 | 0.0 | 0.00 | 0.64 | 0.00 | 88 | 1009.2 |
| 20260901114514 | 19 | 321 | 0.0 | 0.0 | 0.00 | 0.64 | 0.00 | 89 | 1009.1 |
| 20260901113014 | 19 | 321 | 0.0 | 0.0 | 0.00 | 0.64 | 0.00 | 89 | 1009.3 |
| 20260901111516 | 20 | 321 | 0.0 | 0.0 | 0.00 | 0.64 | 0.00 | 89 | 1009.2 |
| 20260901110012 | 20 | 321 | 0.0 | 0.0 | 0.00 | 0.64 | 0.00 | 88 | 1009.2 |
| 20260901104509 | 20 | 321 | 0.0 | 0.0 | 0.00 | 0.64 | 0.00 | 86 | 1009.2 |
| 20260901103008 | 20 | 321 | 0.0 | 0.0 | 0.00 | 0.64 | 0.00 | 86 | 1009.0 |
| 20260901101514 | 20 | 321 | 0.0 | 0.0 | 0.00 | 0.64 | 0.00 | 88 | 1008.8 |
| 20260901100005 | 20 | 321 | 0.0 | 0.0 | 0.00 | 0.64 | 0.00 | 86 | 1008.8 |
| 20260901094503 | 20 | 321 | 0.0 | 0.0 | 0.00 | 0.64 | 0.00 | 86 | 1008.8 |
| 20260901093002 | 20 | 321 | 0.0 | 0.0 | 0.00 | 0.64 | 0.00 | 86 | 1008.8 |
| 20260901091601 | 21 | 321 | 0.0 | 0.0 | 0.00 | 0.64 | 0.00 | 85 | 1008.7 |
| 20260901090108 | 20 | 321 | 0.0 | 3.2 | 0.00 | 0.64 | 0.00 | 85 | 1008.8 |
| 20260901084600 | 20 | 321 | 0.0 | 0.0 | 0.00 | 0.64 | 0.00 | 86 | 1008.8 |
| 20260901083059 | 21 | 321 | 0.0 | 3.2 | 0.00 | 0.64 | 0.00 | 87 | 1008.8 |
| 20260901081602 | 20 | 321 | 0.0 | 0.0 | 0.00 | 0.64 | 0.00 | 86 | 1008.8 |
| 20260901080150 | 21 | 321 | 0.0 | 0.0 | 0.00 | 0.64 | 0.00 | 85 | 1008.7 |
| 20260901074554 | 21 | 321 | 0.0 | 0.0 | 0.00 | 0.64 | 0.00 | 83 | 1008.7 |
| 20260901073053 | 21 | 321 | 0.0 | 0.0 | 0.00 | 0.64 | 0.00 | 83 | 1008.8 |
| 20260901071550 | 21 | 321 | 0.0 | 0.0 | 0.00 | 0.64 | 0.00 | 82 | 1008.8 |
| 20260901070053 | 21 | 321 | 0.0 | 0.0 | 0.00 | 0.64 | 0.00 | 82 | 1008.9 |
| 20260901064554 | 22 | 110 | 0.0 | 0.0 | 0.00 | 0.64 | 0.64 | 80 | 1008.8 |
| 20260901063056 | 22 | 110 | 0.0 | 0.0 | 0.00 | 0.64 | 0.64 | 78 | 1008.9 |
| 20260901061600 | 23 | 110 | 0.0 | 0.0 | 0.00 | 0.64 | 0.64 | 74 | 1008.9 |
| 20260901060045 | 24 | 267 | 0.0 | 6.4 | 0.00 | 0.64 | 0.64 | 65 | 1008.8 |
| 20260901054550 | 23 | 326 | 1.6 | 6.4 | 0.00 | 0.64 | 0.64 | 69 | 1008.6 |
| 20260901053044 | 23 | 314 | 1.6 | 4.8 | 0.00 | 0.64 | 0.64 | 74 | 1008.5 |
| 20260901051543 | 23 | 309 | 0.0 | 0.0 | 0.00 | 0.64 | 0.64 | 75 | 1008.7 |
| 20260901050043 | 23 | 293 | 0.0 | 3.2 | 0.00 | 0.64 | 0.64 | 74 | 1008.7 |
| 20260901044558 | 23 | 324 | 1.6 | 6.4 | 0.00 | 0.64 | 0.64 | 76 | 1008.9 |
| 20260901043042 | 22 | 314 | 0.0 | 0.0 | 0.00 | 0.64 | 0.64 | 77 | 1008.9 |
| 20260901041540 | 22 | 314 | 0.0 | 0.0 | 0.00 | 0.64 | 0.64 | 74 | 1008.9 |
| 20260901040053 | 23 | 314 | 0.0 | 0.0 | 0.00 | 0.64 | 0.64 | 75 | 1008.7 |
| 20260901034540 | 23 | 314 | 0.0 | 0.0 | 0.00 | 0.64 | 0.64 | 77 | 1008.5 |
| 20260901033039 | 23 | 298 | 0.0 | 0.0 | 0.00 | 0.64 | 0.64 | 80 | 1008.4 |
| 20260901031537 | 22 | 298 | 0.0 | 0.0 | 0.00 | 0.64 | 0.64 | 78 | 1008.3 |
| 20260901030039 | 23 | 298 | 0.0 | 0.0 | 0.00 | 0.64 | 0.64 | 78 | 1007.9 |
| 20260901024547 | 23 | 298 | 0.0 | 0.0 | 0.00 | 0.64 | 0.64 | 76 | 1007.6 |
| 20260901023038 | 23 | 298 | 0.0 | 0.0 | 0.00 | 0.64 | 0.64 | 75 | 1007.3 |
| 20260901021545 | 23 | 298 | 0.0 | 0.0 | 0.00 | 0.64 | 0.64 | 75 | 1007.2 |
| 20260901020038 | 23 | 298 | 0.0 | 0.0 | 0.00 | 0.64 | 0.64 | 76 | 1006.9 |
| 20260901014538 | 24 | 298 | 0.0 | 0.0 | 0.00 | 0.64 | 0.64 | 71 | 1006.5 |
| 20260901013035 | 24 | 298 | 0.0 | 0.0 | 0.00 | 0.64 | 0.64 | 69 | 1006.4 |
| 20260901011533 | 25 | 298 | 0.0 | 0.0 | 0.00 | 0.64 | 0.64 | 66 | 1006.3 |
| 20260901010037 | 25 | 300 | 0.0 | 1.6 | 0.00 | 0.64 | 0.64 | 67 | 1006.0 |
| 20260901004532 | 25 | 302 | 0.0 | 0.0 | 0.00 | 0.64 | 0.64 | 66 | 1006.0 |
| 20260901003034 | 25 | 310 | 0.0 | 6.4 | 0.00 | 0.64 | 0.64 | 67 | 1005.9 |
| 20260901001537 | 25 | 320 | 1.6 | 8.0 | 0.00 | 0.64 | 0.64 | 64 | 1005.8 |
| 20260901000030 | 26 | 311 | 3.2 | 6.4 | 0.00 | 0.64 | 0.64 | 62 | 1006.0 |
| 20260831234533 | 26 | 321 | 3.2 | 6.4 | 0.00 | 0.64 | 0.64 | 62 | 1006.0 |
| 20260831233030 | 26 | 281 | 3.2 | 9.7 | 0.00 | 0.64 | 0.64 | 63 | 1006.0 |
| 20260831231633 | 26 | 305 | 3.2 | 9.7 | 0.00 | 0.64 | 0.64 | 66 | 1005.9 |
| 20260831230032 | 26 | 109 | 0.0 | 1.6 | 0.00 | 0.64 | 0.64 | 65 | 1006.1 |
| 20260831224546 | 25 | 117 | 0.0 | 9.7 | 0.00 | 0.64 | 0.64 | 69 | 1006.3 |
| 20260831223027 | 24 | 112 | 4.8 | 11.3 | 0.00 | 0.64 | 0.64 | 70 | 1006.4 |
| 20260831221529 | 24 | 115 | 0.0 | 3.2 | 0.00 | 0.64 | 0.64 | 77 | 1006.6 |
| 20260831220025 | 23 | 104 | 0.0 | 3.2 | 0.03 | 0.64 | 0.64 | 82 | 1007.0 |
| 20260831214532 | 22 | 96 | 0.0 | 3.2 | 0.05 | 0.64 | 0.64 | 85 | 1007.3 |
| 20260831213024 | 21 | 238 | 1.6 | 9.7 | 0.10 | 0.64 | 0.64 | 86 | 1007.9 |
| 20260831211523 | 21 | 330 | 1.6 | 4.8 | 0.18 | 0.64 | 0.64 | 83 | 1007.6 |
| 20260831210022 | 21 | 109 | 0.0 | 3.2 | 0.25 | 0.61 | 0.61 | 89 | 1008.8 |
| 20260831204522 | 21 | 100 | 4.8 | 9.7 | 0.36 | 0.58 | 0.58 | 90 | 1009.4 |
| 20260831203032 | 20 | 115 | 1.6 | 9.7 | 0.33 | 0.53 | 0.53 | 91 | 1010.3 |
| 20260831201521 | 20 | 110 | 4.8 | 11.3 | 0.25 | 0.46 | 0.46 | 90 | 1010.5 |